Startpagina
METAR-TAF:

METAR-TAF

Vliegvelden :

Torrington Municipal Airport

Torrington, Wyoming, Verenigde Staten

breedte: 42-03-53N, lengte: 104-09-10W, hoogte: 1282 m

Actueel weer

Dit bericht is 7 minuten geleden gemaakt, om 12:53 UTC
Wind 17 kt uit het noordnoordwesten met uitschieters tot 23 kt
Temperatuur 5°C
Vochtigheid 75%
Druk 1005 hPa
Zicht: 16.1 km
Onbewolkt

METAR: KTOR 201253Z AUTO 33017G23KT 10SM CLR 05/01 A2969 RMK AO2 SLP047 T00500006

Tijdstip: 06:00 (13:00 UTC)


TAF: ontbreekt

Waarnemingen en weersverwachtingen van meer dan 4000 vliegvelden (METAR en TAF).

De beschikbare stations zijn de gele en rode punten op de kaart.

Ga met uw muis naar het station om de naam te zien.

Klik dan om waarnemingen en weersverwachtingen te zien.

kaart wijzigen: klik op de groene knoppen met een zwart kruis om in te zoomen, op de groene knop met een streepje om uit te zoomen of op de groene pijlen voor aangrenzende kaarten.


METAR-TAF: